Location: *
(40.7873°S, 98.7174°E)
Time: 10:47:19
(UTC+00:00)

Cosmos 1697 Rocket - Pass Details

Date: 24 May 2022
Orbit: 833 x 843 km, 71.0° (Epoch: 04 July)

Event Time Altitude Azimuth Distance (km) Brightness Sun altitude
Rises 10:33:02 0° 194° (SSW) 3,422 5.8 -4.7°
Reaches altitude 10° 10:35:55 10° 181° (S) 2,483 4.9 -5.2°
Maximum altitude 10:40:38 26° 126° (SE) 1,615 3.6 -6.0°
Drops below altitude 10° 10:45:19 10° 70° (ENE) 2,467 4.7 -6.9°
Sets 10:48:10 0° 57° (ENE) 3,395 5.5 -7.4°
